RH
47 46 48 50 52 53 59 57 70 87 85 95 100 98 93 88 94 94 93 94 92 84 81 85 83 85 87 86 82 82 88 87 83 90 93 85 79 78 77 79 83 83 85 89 93 97 96 96 97 96 97 98 98 96 98 99 100 96 93 99 96 93 95 95 92 87 82 84 88 88 87 88 91 88 92 97 96 96 88 87 89 89 93 85 81 95 98 97 100 96 95 86 61 34 20 16 14
44 43 49 52 55 56 60 62 83 101 94 98 98 97 96 92 95 95 95 95 91 85 86 88 86 87 85 84 81 82 88 86 81 86 89 89 88 86 85 83 83 84 86 90 92 96 98 98 97 97 98 98 99 99 98 98 97 96 95 97 97 95 94 93 91 88 84 83 85 88 88 89 92 92 94 96 95 94 90 89 90 88 93 94 84 89 95 94 93 84 80 74 57 33 18 14 14
44 41 47 52 59 60 62 67 87 102 100 99 96 97 95 92 93 93 92 87 84 85 88 87 87 86 83 85 85 87 90 87 85 87 91 95 93 90 90 86 83 85 87 91 91 93 96 96 96 98 100 98 99 100 99 99 96 95 97 97 96 94 94 93 92 90 86 84 86 90 90 90 91 93 95 97 95 91 91 91 90 89 93 99 95 89 84 83 76 64 59 53 39 23 15 15 15
51 47 46 51 58 64 72 81 94 99 99 98 95 99 98 93 90 91 89 83 84 84 83 82 85 84 84 87 85 89 93 91 88 85 90 95 91 88 91 88 87 90 91 95 95 94 94 95 97 98 100 99 98 100 99 99 98 98 98 98 96 94 95 93 91 90 88 88 90 94 91 91 93 93 94 96 96 91 91 90 89 91 92 95 100 88 72 69 58 41 35 29 23 17 15 16 15
58 56 54 54 58 66 78 90 100 98 95 97 95 98 100 94 90 93 90 86 87 85 81 80 84 85 84 85 84 89 93 93 92 87 87 90 90 88 89 91 94 96 96 98 98 97 95 96 99 99 99 98 97 99 99 98 97 98 100 98 96 97 97 94 93 91 90 92 91 93 92 92 92 92 94 97 96 94 93 92 91 93 94 97 100 88 69 62 43 24 18 17 17 16 16 15 15
60 62 62 57 58 67 80 92 98 99 93 91 94 98 98 92 89 91 87 86 86 84 80 79 81 84 85 84 83 86 91 93 95 95 91 91 93 89 88 93 98 96 96 97 97 97 96 97 100 100 97 95 94 96 99 99 97 98 100 98 97 98 93 92 98 93 88 91 91 92 92 90 89 91 93 94 95 95 96 97 96 96 98 98 99 90 73 57 32 18 17 17 17 16 17 16 16
61 63 65 63 67 74 88 98 97 98 93 88 93 97 95 88 85 86 85 84 82 79 77 77 77 80 84 83 86 85 88 92 94 98 97 95 95 90 88 90 92 91 94 96 95 97 97 96 97 97 95 95 95 97 99 99 99 99 100 99 98 99 93 92 97 94 90 90 92 92 91 91 90 90 91 92 92 94 96 98 98 98 99 97 101 95 74 52 28 19 19 18 18 18 18 18 18
63 63 69 76 85 88 94 101 97 97 94 86 88 90 88 83 81 83 83 80 79 77 77 78 76 80 82 82 88 86 89 94 94 99 98 99 97 90 90 88 86 88 92 93 92 95 95 94 95 93 92 93 92 95 98 98 99 99 99 100 99 98 95 95 94 95 95 90 90 91 93 95 93 91 90 94 93 92 94 97 99 97 99 96 94 85 61 39 23 18 19 18 19 19 18 19 19
63 63 72 81 92 97 98 100 97 97 97 88 82 80 80 79 76 80 81 79 76 75 78 79 77 81 83 85 86 85 93 97 96 100 99 100 98 93 95 93 90 90 92 93 92 92 92 93 96 94 93 92 89 93 99 97 98 98 98 100 98 96 96 95 94 94 96 94 91 91 94 95 94 94 93 97 96 95 96 96 98 96 98 86 67 57 38 23 18 18 19 19 19 19 19 20 20
64 65 73 86 95 98 99 99 96 95 93 87 80 75 77 81 76 77 80 80 77 74 80 79 77 81 84 86 84 84 93 98 99 100 100 100 99 98 99 99 97 97 97 97 96 95 93 94 96 94 95 94 92 96 100 98 99 99 99 98 91 88 94 95 94 94 96 97 95 92 96 94 93 97 97 98 96 97 96 95 97 88 83 67 46 38 24 16 18 19 19 20 20 20 21 21 21
68 68 70 86 99 99 98 96 95 94 88 80 76 72 75 81 78 79 81 83 79 76 81 81 79 79 83 85 77 78 89 97 101 99 100 100 100 100 100 100 100 99 100 100 99 99 98 97 96 94 97 98 97 97 98 99 99 99 98 95 82 75 84 93 95 95 96 97 97 96 97 97 97 99 96 95 97 98 95 96 92 70 54 43 33 25 18 19 20 20 21 21 21 21 21 20 18
73 78 78 90 101 99 97 96 97 94 90 83 76 70 72 79 83 85 86 84 82 82 82 77 75 74 85 89 73 75 88 96 99 99 100 100 100 100 100 100 100 100 100 100 100 100 100 99 98 98 99 99 99 97 96 98 100 99 98 96 87 78 75 83 94 97 96 96 97 98 99 99 98 98 97 97 98 97 94 89 73 51 35 25 21 18 19 21 21 22 22 21 21 19 16 13 10
75 85 87 95 99 98 99 99 99 94 93 88 74 67 70 78 83 85 83 84 86 88 81 72 73 73 83 85 71 75 87 93 98 100 100 99 100 99 100 100 100 100 99 100 99 100 99 99 99 100 100 98 98 97 96 98 97 91 89 84 77 74 67 69 86 94 96 97 97 98 98 97 96 98 98 97 97 96 88 71 48 34 25 18 19 21 21 21 22 23 22 21 17 13 8 6 4
74 77 82 92 95 98 98 94 94 93 95 84 65 62 70 76 77 78 79 85 88 83 75 69 73 73 77 79 72 71 80 93 99 100 100 100 100 99 100 100 100 100 100 100 99 99 97 97 97 98 99 96 96 97 96 94 86 73 69 64 55 55 54 56 69 83 93 93 94 94 91 88 88 92 90 84 82 76 62 45 31 23 19 19 22 22 23 23 23 22 19 16 10 6 4 3 3
71 68 77 88 92 96 92 90 88 84 87 72 58 61 67 69 69 73 77 81 81 75 72 72 74 74 73 75 71 64 72 93 100 100 100 100 100 100 100 99 100 100 100 100 99 98 95 95 94 95 97 95 95 94 94 86 73 63 60 58 50 43 42 47 55 69 75 69 74 79 73 63 57 59 58 54 48 38 29 25 22 19 20 22 22 23 24 24 22 20 15 9 5 4 3 3 3
69 64 78 87 89 96 90 81 72 69 78 65 54 62 66 65 63 70 75 74 73 72 74 75 75 72 68 69 68 62 70 89 98 100 100 99 100 100 100 100 100 100 100 100 100 99 97 97 93 93 95 95 94 91 90 78 65 62 62 57 48 39 36 40 44 51 47 39 48 52 43 33 28 29 27 26 22 18 18 19 19 20 22 22 23 24 24 23 20 15 8 5 3 3 3 4 4
62 65 85 95 91 95 83 61 52 57 68 61 56 62 68 66 58 63 70 70 71 71 73 74 74 72 69 67 66 64 70 84 95 100 100 100 100 99 100 100 100 100 100 100 99 99 98 97 93 91 93 93 92 91 87 72 63 62 60 55 45 38 35 34 33 33 27 22 27 26 22 19 19 20 18 17 17 17 18 18 20 21 22 23 25 25 24 22 15 9 5 4 3 4 4 3 4
59 79 89 94 93 92 74 50 46 46 44 48 56 61 67 66 56 58 63 64 68 71 71 71 72 72 72 70 66 65 71 83 94 100 100 100 100 100 100 99 100 100 99 100 99 100 99 97 94 90 90 91 91 93 85 68 66 64 58 54 46 38 33 30 28 25 23 20 20 19 19 18 18 19 17 18 17 18 18 19 20 21 23 24 25 25 24 18 10 6 4 4 4 4 4 4 5
61 90 88 89 94 84 60 40 36 32 30 40 51 57 65 62 52 54 61 63 65 72 72 71 74 72 73 73 70 67 71 85 94 99 100 99 100 99 100 99 100 100 99 100 99 100 100 96 93 88 87 90 91 93 84 69 69 67 61 59 52 44 36 30 28 28 27 25 24 23 22 20 19 19 18 19 18 18 18 19 20 21 23 24 26 25 22 14 7 5 3 4 4 4 5 4 5
55 74 83 92 91 70 42 27 25 24 27 38 47 57 64 57 48 52 59 63 68 75 71 71 74 63 64 73 73 69 71 86 96 99 100 99 100 99 99 99 99 100 99 100 100 100 99 96 89 83 84 88 90 92 85 73 71 68 64 65 60 53 43 35 32 32 33 31 30 27 25 23 21 20 19 20 19 19 19 20 21 22 24 25 26 25 19 11 6 5 4 4 4 4 5 4 5
52 66 81 84 71 56 36 23 24 24 25 34 44 55 62 55 50 50 54 60 70 71 54 52 53 39 46 64 73 72 71 85 96 99 100 99 100 99 99 99 99 99 100 100 100 99 97 95 89 84 87 89 88 90 87 77 74 69 67 69 66 60 49 41 37 35 35 33 32 30 28 25 23 23 21 21 20 20 20 21 22 23 24 26 26 24 16 9 6 5 4 4 4 5 4 4 5
53 62 63 56 44 40 32 22 24 25 24 32 44 53 52 49 49 48 52 55 54 47 32 31 32 28 37 50 64 71 71 80 92 97 99 100 100 100 100 100 100 99 100 100 99 99 97 95 92 90 92 91 88 88 88 82 78 71 68 70 68 64 55 47 42 38 36 34 33 32 29 28 26 25 24 23 23 22 22 22 23 24 25 27 26 23 14 8 6 5 4 5 4 4 4 5 4
49 51 38 31 30 28 26 22 24 25 24 30 40 45 41 44 48 46 51 49 35 30 28 28 30 32 38 45 56 65 68 74 83 89 92 96 98 99 99 99 100 99 99 100 99 99 99 97 95 94 93 91 89 88 88 86 82 75 71 70 68 66 60 54 48 41 39 37 35 33 31 30 29 28 27 26 25 23 23 23 24 25 26 27 26 21 14 9 7 5 5 4 4 5 4 4 5
42 50 35 24 26 24 23 24 24 24 26 27 32 37 38 46 49 44 47 40 28 30 32 33 33 34 37 44 53 58 62 67 72 78 81 86 88 91 95 97 98 99 99 99 100 100 99 100 97 95 93 91 89 88 87 87 85 79 73 71 69 68 64 59 53 47 43 41 39 36 33 32 31 31 30 28 27 26 24 24 25 26 27 28 27 22 15 10 8 6 5 5 5 5 5 5 5
42 50 35 22 25 24 23 25 24 24 25 26 30 36 36 41 45 43 41 30 26 31 32 35 37 37 37 38 44 53 60 63 66 73 80 84 87 93 97 98 99 99 100 100 100 100 99 99 99 96 93 90 88 87 87 86 84 80 75 72 69 68 66 62 57 52 48 46 44 40 37 34 33 32 32 31 29 27 26 26 26 27 28 28 27 22 16 12 9 7 5 5 5 5 5 5 5
38 36 28 24 25 24 24 25 24 25 26 27 32 37 33 33 39 38 32 25 25 28 29 33 37 39 40 37 38 46 55 61 64 70 79 85 92 98 99 100 100 99 99 100 100 99 100 99 98 97 94 92 88 86 86 85 83 79 76 74 70 68 67 65 62 57 52 50 49 45 42 37 35 34 33 33 31 29 27 26 27 28 29 29 28 22 17 13 10 8 6 5 5 5 5 5 5
29 26 24 24 25 25 26 26 27 28 27 28 33 39 33 29 36 34 24 22 22 23 25 27 32 34 35 37 38 41 49 55 59 66 76 86 94 98 99 100 100 100 99 100 100 99 100 99 98 97 97 96 91 86 85 86 84 79 77 76 73 69 68 68 64 61 56 53 52 50 47 42 38 36 34 35 33 31 28 27 28 28 29 30 28 23 18 15 13 11 8 6 6 5 5 5 5
22 23 24 27 28 24 26 28 28 30 28 27 33 38 32 31 40 34 21 23 24 22 24 24 27 28 30 37 40 43 47 49 57 66 72 78 83 87 92 94 96 99 100 99 100 100 100 99 99 98 98 98 95 90 86 86 86 81 78 78 76 72 69 69 66 63 60 55 55 53 51 47 42 39 37 35 35 33 31 29 29 29 30 30 29 25 20 17 15 13 11 8 6 6 5 5 5
23 23 26 39 43 33 30 32 29 29 30 26 30 35 33 36 38 26 19 24 26 25 25 25 25 26 29 36 41 45 45 49 60 65 65 66 70 76 81 86 92 96 98 99 100 100 100 99 99 99 99 99 97 94 89 86 86 84 81 80 79 76 72 70 68 66 63 59 57 56 55 52 47 43 40 37 36 35 34 32 30 30 30 31 30 27 23 19 16 15 13 11 7 7 5 5 6
24 27 31 43 49 45 35 31 32 30 30 26 27 36 37 40 33 19 20 25 26 27 25 23 25 26 28 32 39 44 45 50 56 56 57 61 66 73 77 81 89 93 95 98 100 99 99 100 100 100 99 100 98 95 92 87 86 85 83 82 82 80 76 72 71 69 67 63 61 60 59 57 53 48 45 41 38 37 36 35 33 32 31 31 31 29 26 21 18 17 15 13 10 7 6 5 5
32 31 50 57 43 53 47 32 35 30 30 26 26 39 37 34 29 19 21 23 25 28 24 22 23 24 25 28 33 39 44 48 50 50 53 60 65 71 75 77 83 91 94 97 97 96 99 100 99 100 99 99 98 95 92 87 85 85 84 83 84 84 81 76 74 73 71 68 66 64 62 61 59 55 50 46 42 39 38 37 36 34 33 32 32 31 29 25 21 19 17 16 12 9 7 6 6
58 29 52 71 46 59 59 36 38 30 29 27 26 42 38 31 29 20 21 23 26 28 23 22 22 23 24 24 27 30 35 41 48 52 53 58 62 66 69 71 77 83 89 91 94 97 100 100 99 99 98 96 96 94 92 88 85 85 84 84 85 86 85 80 77 76 75 74 71 68 66 65 64 62 58 52 48 44 40 39 38 37 36 34 33 32 31 29 26 23 20 18 16 12 9 7 7
80 44 42 63 50 55 55 38 40 32 30 31 29 41 38 32 29 21 23 23 26 30 26 25 23 23 24 22 24 23 26 34 42 46 49 53 56 59 62 64 70 75 80 87 93 97 98 99 99 97 96 94 95 94 92 90 88 87 86 84 85 86 87 85 82 79 77 77 75 74 72 69 68 66 65 60 55 50 45 42 40 39 39 38 36 34 33 32 31 29 25 22 20 15 11 9 7
73 67 52 58 56 52 51 44 42 34 33 36 36 41 36 31 29 24 26 24 27 33 30 29 26 25 25 24 24 23 24 26 29 32 36 41 43 47 54 59 66 71 76 84 89 94 95 97 97 96 95 93 94 94 93 92 90 89 87 85 85 86 86 86 85 84 81 79 78 78 77 75 73 70 68 67 63 58 52 48 45 42 41 40 39 38 36 35 34 33 31 28 25 20 15 11 8
51 61 55 57 62 54 54 51 46 41 39 42 44 45 38 32 31 28 28 28 29 32 30 29 30 29 28 27 26 24 25 23 21 22 24 28 31 36 45 53 61 67 73 79 85 91 95 96 97 96 95 94 94 95 94 94 92 90 89 86 86 87 87 87 87 88 86 82 80 80 80 79 77 75 72 71 69 66 60 55 51 47 44 43 42 41 40 38 37 36 35 33 30 26 21 15 11
47 57 57 53 56 52 54 57 59 52 45 52 51 46 44 37 35 32 27 28 28 30 30 30 31 31 30 30 29 26 26 23 20 20 21 23 27 29 36 43 51 60 66 72 79 87 95 97 98 97 95 94 93 94 94 94 93 90 89 88 88 88 89 89 89 90 89 85 83 81 82 82 81 80 78 75 73 71 67 63 58 54 49 46 44 43 42 41 40 39 37 36 35 33 28 21 15
50 55 61 59 60 55 48 52 66 60 48 59 60 53 52 41 34 28 19 20 25 30 33 33 32 30 30 30 29 26 23 20 19 22 22 23 25 26 30 35 43 52 60 67 73 79 88 93 96 97 96 96 95 94 94 93 92 90 90 89 88 88 90 91 91 92 91 89 87 85 83 83 83 83 82 80 78 75 72 69 66 61 56 52 49 46 44 43 43 43 41 40 39 39 36 29 20
53 56 61 62 66 58 45 49 68 63 45 53 56 44 37 28 23 19 17 21 24 28 30 31 30 27 28 27 25 23 19 18 19 21 22 22 23 24 26 30 34 41 47 54 60 65 74 82 90 94 96 97 95 94 94 93 92 91 90 90 88 87 88 90 89 88 88 88 89 89 86 85 85 85 85 84 82 80 77 74 71 68 64 59 55 51 48 46 45 45 44 43 42 41 41 36 26
60 62 56 54 60 54 49 55 67 60 36 35 42 35 27 21 21 20 21 24 22 20 22 24 24 23 24 23 20 20 18 17 17 17 18 19 20 22 25 27 28 31 36 42 48 53 62 71 79 88 93 95 94 94 93 91 91 91 90 90 89 88 89 89 89 87 87 86 88 90 88 86 86 86 86 86 84 83 81 79 76 74 71 66 62 57 53 50 48 46 45 45 44 43 42 40 35
60 59 45 42 49 42 40 51 60 55 36 37 45 41 32 21 23 25 21 23 22 19 21 21 22 22 19 18 19 20 19 16 15 14 15 17 19 21 23 25 26 28 31 37 43 49 56 62 68 76 83 88 90 92 92 91 90 89 88 88 88 88 88 89 90 90 88 87 88 89 88 86 85 85 86 86 85 84 83 81 80 78 75 72 68 63 59 55 52 49 48 46 46 45 44 43 41
64 61 38 33 40 36 40 51 51 41 37 49 47 32 27 26 31 30 19 23 26 23 24 22 20 19 17 19 19 18 17 15 14 13 13 15 16 18 19 21 24 26 27 29 32 37 44 50 56 63 70 77 83 88 90 90 88 87 86 85 85 85 86 87 88 89 88 87 85 84 86 87 87 87 87 87 86 86 84 83 81 80 79 75 72 68 64 60 56 53 51 48 47 47 46 45 44
54 50 39 39 41 37 46 52 38 21 23 38 38 24 26 35 32 24 21 31 34 27 29 25 17 15 16 18 15 13 13 12 12 11 12 14 14 16 18 19 22 23 24 25 26 30 34 39 45 52 59 65 72 78 84 88 87 86 86 84 84 84 85 86 85 85 85 83 79 78 81 84 86 86 86 86 86 86 87 85 84 82 81 78 75 72 68 64 60 57 54 51 50 48 47 47 46
33 40 52 59 52 40 45 46 27 19 19 25 35 31 28 30 19 19 33 41 36 26 27 27 17 11 12 13 11 11 11 9 10 10 10 12 12 15 16 17 20 20 20 23 25 28 30 34 39 44 50 55 60 68 75 81 83 84 85 84 84 84 84 83 82 82 82 81 78 77 79 80 82 83 82 82 83 84 85 85 84 83 82 81 77 74 71 67 64 60 57 54 52 50 49 48 48
38 51 62 60 49 39 46 45 29 33 34 35 47 37 34 39 24 28 41 33 27 23 22 27 19 8 7 9 9 9 9 7 7 8 8 9 10 12 13 15 17 17 19 22 24 27 28 31 36 39 44 48 52 58 64 70 74 77 79 79 80 80 80 80 81 82 82 81 80 80 80 80 81 81 81 81 81 82 83 82 82 81 80 80 78 76 72 69 66 62 59 56 53 51 50 49 49
41 58 65 58 50 48 56 54 52 61 47 41 56 42 37 46 30 34 41 21 20 25 22 27 22 9 5 7 8 9 9 7 5 6 7 9 9 9 10 12 14 15 18 21 22 24 27 29 33 36 40 42 46 52 56 60 64 67 71 74 75 75 75 76 78 79 79 79 79 79 80 80 80 80 80 81 81 81 81 81 80 79 78 78 77 75 73 70 67 64 61 58 55 53 52 51 50
40 61 67 68 74 73 66 58 61 72 51 36 50 41 32 38 25 26 29 18 23 27 24 30 24 11 6 6 8 8 10 8 6 6 7 8 10 10 12 13 14 16 17 20 22 23 26 29 32 34 36 38 42 46 49 52 55 60 65 68 69 70 70 72 74 76 76 77 77 77 77 76 76 76 76 76 78 78 78 79 79 78 78 76 75 74 72 69 67 65 62 60 57 55 53 52 50
47 55 46 46 67 70 69 78 66 56 53 47 50 43 33 34 27 21 24 30 35 26 20 24 19 10 7 6 7 7 9 9 6 5 6 8 10 10 13 14 13 15 17 19 20 22 24 26 29 31 32 35 38 40 43 46 49 54 57 60 62 63 63 67 70 70 71 72 71 70 70 70 70 70 70 71 72 73 74 75 76 76 76 76 75 73 71 68 66 64 62 60 58 56 54 52 51
47 43 32 20 36 40 50 79 66 42 52 57 56 52 41 36 29 20 26 38 39 29 19 16 14 12 7 5 8 7 8 9 9 8 6 8 10 10 10 9 11 13 14 14 14 16 19 22 26 27 28 31 33 36 40 42 45 49 51 53 56 56 57 62 65 64 64 64 63 63 63 64 65 65 65 64 64 64 65 66 68 70 71 71 70 68 67 65 63 62 61 60 58 56 55 53 52
43 36 42 30 34 33 33 55 54 45 50 47 50 54 42 36 26 16 22 25 27 30 26 19 17 15 10 8 9 9 9 8 9 10 8 8 9 10 8 6 8 9 9 9 10 12 15 17 21 23 22 24 29 34 36 39 42 44 45 47 48 49 53 57 58 57 57 57 57 57 58 58 57 57 57 55 53 53 55 57 59 60 60 61 61 60 61 60 60 60 59 59 58 57 55 54 53
34 27 41 39 33 25 28 45 41 39 44 36 36 41 35 31 25 21 22 16 16 22 21 20 19 17 16 14 11 10 11 11 10 10 9 8 9 11 10 7 7 8 8 9 10 12 14 15 18 19 17 20 26 30 32 35 37 38 40 42 44 46 48 49 51 51 50 50 52 52 52 52 52 51 50 47 47 48 50 51 53 54 54 55 55 55 56 56 57 57 57 57 56 56 55 54 54
41 32 31 36 37 22 27 46 36 33 48 41 25 30 39 32 24 29 26 18 17 16 15 17 17 17 17 16 14 14 15 16 15 11 9 10 12 12 13 10 8 9 10 11 11 12 14 14 16 18 18 21 25 27 30 33 33 34 37 39 40 42 43 44 45 45 46 46 47 47 48 48 47 46 45 44 45 47 48 49 50 51 51 52 53 53 54 54 55 56 55 56 55 55 55 54 53
40 36 23 33 43 27 29 50 45 35 44 46 32 34 45 30 16 20 19 19 21 17 18 19 16 19 19 18 19 17 17 19 20 20 18 19 19 15 15 15 12 12 13 13 14 15 16 17 19 22 23 24 26 28 29 31 32 34 36 37 38 39 40 42 42 41 42 41 42 43 44 44 44 44 44 44 44 45 46 46 47 47 48 49 50 51 52 53 54 55 54 54 54 54 54 54 53
27 28 28 40 37 20 24 44 49 39 34 39 33 27 30 23 16 19 19 22 24 22 23 21 21 26 25 26 29 27 26 24 25 31 34 36 34 26 24 23 21 20 20 21 21 20 21 23 24 25 25 25 26 28 30 31 33 35 35 36 36 37 38 38 38 38 38 39 41 42 43 43 43 43 43 43 43 44 45 45 46 46 47 48 49 50 51 52 53 54 54 54 54 54 54 53 53
29 29 30 32 28 31 37 35 39 42 37 37 36 31 35 31 23 25 28 29 30 29 28 26 28 31 33 38 40 39 36 29 28 32 34 38 38 34 33 31 31 32 31 30 28 26 27 28 29 29 29 31 31 32 33 35 38 38 38 39 39 39 39 38 38 37 37 38 39 40 40 40 41 41 42 43 44 45 45 45 46 46 47 47 48 49 50 52 53 53 53 53 53 54 55 54 54
30 34 31 25 30 48 48 34 38 42 36 42 48 45 47 43 33 32 36 38 38 35 33 33 37 39 44 50 50 47 42 36 35 33 31 32 30 29 30 28 30 33 33 34 30 29 30 29 30 30 31 32 32 32 32 34 37 38 40 42 43 44 45 44 44 43 43 44 42 41 41 40 40 40 42 43 44 46 46 46 47 47 48 48 49 50 51 52 54 53 54 54 54 55 55 54 54
34 33 35 35 38 49 46 40 51 48 32 41 51 42 39 41 38 36 40 43 43 42 40 40 43 48 53 57 58 56 50 44 42 38 36 35 31 31 30 28 30 31 31 32 29 29 30 29 29 29 29 30 29 29 30 30 32 33 35 38 40 42 43 44 45 45 46 45 43 44 43 43 43 43 43 44 44 45 46 46 47 47 48 49 50 51 52 53 54 54 54 54 55 56 55 55 55
46 42 44 40 31 38 42 39 51 49 34 41 48 39 37 37 33 37 43 45 46 46 46 45 48 55 60 63 64 61 56 50 46 42 41 40 38 38 37 36 36 34 34 34 33 34 34 33 33 32 32 31 30 30 31 31 32 32 33 34 35 36 36 36 36 37 37 37 36 37 37 40 44 46 48 49 47 47 47 47 48 48 48 49 51 52 53 55 55 55 56 56 56 56 56 56 56
46 45 48 45 37 41 39 36 47 46 43 56 53 41 44 40 34 41 46 46 47 47 48 51 54 59 65 68 68 65 62 58 54 52 49 46 45 44 43 42 40 39 40 39 39 40 39 39 38 38 38 37 36 36 36 37 37 37 38 38 37 37 37 37 36 35 34 34 34 34 34 38 41 45 50 53 53 52 52 51 50 50 50 51 53 54 56 57 58 58 58 57 58 58 57 57 57
Wind_Speed
8 6 7 8 7 6 4 2 1 2 2 1 2 1 3 1 1 2 2 1 1 3 5 5 7 11 7 2 5 3 3 5 5 4 3 4 16 23 27 28 27 27 25 24 24 21 20 20 20 20 20 19 19 19 18 16 13 13 12 11 9 9 10 10 9 8 9 10 9 10 10 10 10 11 11 9 9 6 6 9 9 9 8 7 10 15 16 17 17 17 17 16 14 12 11 9 10
7 6 6 7 5 4 4 1 0 2 2 2 2 2 3 1 1 4 6 5 2 3 5 6 9 11 6 4 5 2 2 6 5 3 4 14 24 27 29 28 27 27 26 26 25 23 22 22 21 20 20 19 18 17 16 15 13 13 12 12 10 9 10 10 10 9 9 9 10 10 10 10 11 11 11 10 9 7 7 9 9 9 8 9 8 12 16 16 16 16 15 15 13 12 11 10 10
7 5 5 6 3 2 2 1 0 0 0 4 4 3 2 1 4 5 5 5 4 8 7 6 7 7 5 5 5 2 3 6 8 7 10 22 28 29 29 28 27 27 27 27 26 26 25 23 21 20 20 19 17 15 14 13 12 11 11 12 11 10 10 11 11 11 10 10 10 10 10 10 11 11 10 10 9 8 9 10 9 9 9 10 9 11 15 14 15 14 13 13 12 11 11 11 11
6 6 5 4 1 1 2 1 1 3 2 3 3 4 3 4 6 4 4 6 10 10 4 3 2 4 5 2 5 3 4 7 11 11 16 26 28 29 30 28 28 27 28 27 28 28 26 24 21 20 19 18 16 14 13 12 10 10 11 11 11 10 11 12 12 12 11 11 11 10 10 10 10 10 10 10 9 10 10 10 10 9 9 8 8 12 13 13 13 12 12 11 11 11 11 11 11
6 6 6 4 2 1 2 1 1 3 4 3 2 4 4 5 4 3 4 9 11 8 3 3 1 3 4 4 7 3 6 10 12 15 19 26 28 30 31 29 29 28 29 28 28 28 27 25 22 20 18 17 16 14 12 11 11 10 10 10 10 11 11 12 12 12 12 11 11 11 9 10 9 9 10 10 10 10 10 10 10 9 8 7 9 12 12 12 13 12 12 11 11 11 10 11 11
5 4 4 4 2 1 1 1 1 3 5 4 3 4 5 5 7 6 7 9 9 7 4 4 2 3 3 5 9 6 9 11 13 18 21 27 29 30 31 30 30 29 29 29 28 28 28 26 23 20 16 16 16 15 13 10 11 12 12 11 11 11 10 12 13 12 12 11 11 11 10 10 9 8 8 8 9 9 9 10 10 10 9 8 11 12 11 12 12 12 11 11 10 10 10 10 10
4 3 2 1 1 1 1 2 3 4 4 5 4 4 5 5 10 9 7 6 6 7 7 7 5 4 3 4 7 9 13 13 15 21 24 28 29 31 31 31 30 29 29 29 29 28 28 26 24 20 18 18 16 14 13 13 12 12 12 11 11 11 10 11 13 13 12 12 12 12 11 10 10 9 8 8 9 9 9 9 9 9 9 10 11 11 11 11 12 12 11 10 10 9 9 9 9
4 3 1 2 1 2 1 2 3 3 3 3 3 4 5 9 14 10 7 7 5 7 8 9 8 4 4 4 4 9 16 16 18 22 25 28 29 31 30 31 30 29 29 29 29 28 28 26 25 23 20 20 16 13 13 14 13 13 13 12 11 11 11 12 13 13 12 12 12 12 12 12 10 9 9 9 8 9 9 10 9 9 9 9 10 10 10 10 11 11 10 9 9 9 8 8 8
3 2 1 1 1 1 0 2 3 3 4 3 4 5 5 13 18 11 8 8 4 6 8 10 11 5 2 6 5 9 17 18 20 22 25 28 29 31 30 30 30 30 31 30 31 29 28 27 25 23 20 19 17 16 15 14 14 13 13 12 11 11 11 12 13 13 13 12 12 13 13 12 11 10 10 9 9 9 10 10 10 9 9 8 8 8 8 9 11 10 9 8 7 7 7 6 7
2 2 1 1 1 1 2 3 3 3 4 3 5 6 5 13 17 10 7 6 5 6 8 11 10 6 2 5 6 9 18 20 21 23 25 28 29 31 30 30 30 30 32 32 31 29 28 28 25 22 19 17 17 17 15 15 15 14 13 13 12 12 11 11 13 13 13 13 12 12 12 12 11 11 10 10 9 9 9 9 9 8 7 6 7 8 8 8 8 8 7 6 6 5 5 5 5
1 0 2 1 1 1 3 4 3 4 4 3 5 8 8 12 13 7 6 5 6 6 8 11 6 8 4 3 7 9 18 22 23 26 27 29 30 30 30 30 30 30 32 32 31 29 28 27 24 23 20 17 18 18 17 16 15 14 13 11 12 14 14 11 12 12 13 13 13 12 12 12 11 11 10 9 9 9 9 9 8 6 5 5 5 7 7 7 6 6 5 5 4 4 4 3 4
2 0 3 1 2 2 3 3 4 5 5 3 3 8 10 13 10 5 8 6 7 7 10 13 5 6 4 3 8 11 20 25 25 28 28 30 31 30 30 30 30 31 31 31 30 29 28 25 23 22 22 21 20 19 18 17 16 14 11 9 11 15 17 15 13 13 13 13 13 13 12 12 11 11 10 10 9 9 9 7 6 5 4 4 5 6 6 5 5 4 3 3 3 3 3 3 4
3 1 3 1 3 2 2 2 3 4 5 3 3 6 11 13 10 9 9 7 8 7 8 16 9 5 5 3 7 14 22 27 27 29 30 32 32 31 31 30 31 31 30 29 29 28 28 26 23 22 23 23 22 20 19 19 18 15 12 13 13 15 18 18 16 14 13 13 13 13 13 12 12 11 10 10 9 9 7 5 4 3 3 3 4 4 4 4 4 3 3 2 2 3 4 4 5
4 2 3 1 1 0 2 2 3 2 4 4 2 5 12 11 9 11 10 6 10 11 6 15 15 5 5 5 7 17 25 27 30 31 31 32 32 32 31 31 31 31 30 29 29 29 29 27 25 25 25 24 23 22 21 20 18 15 13 14 14 15 17 19 19 16 15 15 15 15 14 13 12 11 10 9 8 7 5 3 3 3 4 4 3 3 3 2 2 2 3 3 3 4 4 5 6
5 2 3 0 2 2 2 3 2 3 3 3 1 5 11 9 7 9 11 9 10 15 7 9 17 7 4 7 7 15 24 29 32 32 32 32 31 31 31 31 31 31 30 30 30 30 29 29 28 27 26 25 25 23 22 20 17 15 13 13 12 14 16 18 19 19 18 17 16 17 15 13 11 11 10 9 7 5 4 4 3 4 4 4 4 4 3 3 2 2 3 4 4 5 5 6 6
5 1 3 0 2 2 2 3 1 2 4 3 2 4 7 8 8 7 11 11 9 12 12 10 17 13 6 8 8 9 20 30 33 33 33 32 30 30 30 30 31 30 30 30 31 31 30 30 29 28 27 26 26 24 22 20 17 14 14 13 12 14 16 17 18 19 19 16 16 17 15 12 10 10 11 10 9 7 6 6 5 5 5 5 5 5 4 4 3 3 3 4 5 6 6 5 5
4 1 2 1 2 2 3 4 3 3 5 3 4 7 6 5 8 9 9 11 11 11 15 14 17 21 15 10 8 6 17 30 33 35 34 32 31 31 31 32 32 31 31 31 32 32 32 31 29 28 27 27 26 24 22 20 17 15 15 14 14 15 16 17 17 19 18 14 15 15 14 13 12 12 13 12 11 10 9 7 7 6 6 6 6 6 5 5 5 5 5 5 6 6 5 5 4
3 2 2 3 2 3 5 6 5 3 3 4 6 11 9 4 8 10 6 9 13 12 16 19 19 23 24 18 11 7 17 31 35 37 37 35 34 33 34 34 34 34 34 34 34 34 33 32 30 28 28 28 27 25 23 21 18 16 16 16 16 16 17 17 17 17 16 13 13 14 13 14 14 15 14 13 13 11 10 9 8 8 8 8 8 7 7 6 6 6 6 6 6 6 5 4 3
5 3 1 4 5 5 6 6 6 4 4 5 6 11 12 7 7 9 5 6 10 10 14 19 22 25 27 25 18 12 17 31 37 40 40 38 38 38 38 37 38 37 37 37 36 36 34 33 30 28 28 28 27 26 24 23 19 17 17 16 16 17 17 17 16 16 15 13 13 14 14 15 16 16 16 15 14 13 12 11 11 10 10 9 9 9 8 8 8 8 8 7 7 6 5 4 4
6 3 2 6 6 5 7 9 9 7 5 4 5 9 13 11 8 8 6 5 5 10 15 16 23 29 28 28 24 17 18 31 39 41 42 41 41 41 41 41 41 41 40 39 38 37 36 34 32 29 29 28 27 27 26 25 21 18 17 17 17 17 17 16 16 15 15 14 14 14 15 16 17 17 17 16 15 15 14 13 12 12 12 11 10 10 9 9 9 9 9 8 8 7 6 5 5
4 5 5 5 4 3 9 12 9 7 5 4 5 6 10 13 11 10 7 3 4 15 23 22 24 28 26 28 28 22 21 31 40 42 43 43 43 43 43 43 43 42 41 39 39 39 38 36 34 32 31 29 27 27 28 27 23 19 18 17 17 17 16 16 16 16 15 14 14 15 16 16 17 17 17 17 16 16 15 15 14 13 13 12 12 12 11 10 10 10 10 10 9 8 8 7 7
3 5 8 6 3 3 7 9 8 7 6 5 5 5 7 9 12 17 14 7 10 18 23 24 24 24 23 25 26 26 25 30 39 43 45 45 45 43 43 43 42 42 41 41 41 40 39 38 35 34 33 30 28 28 28 28 24 21 18 18 18 17 17 17 16 16 16 15 15 16 17 17 17 18 18 18 17 17 16 16 16 15 14 14 13 13 12 12 11 11 11 11 11 10 10 9 9
5 4 7 8 6 5 5 5 8 8 6 6 6 6 8 7 9 18 22 21 24 23 19 17 17 19 22 23 23 28 29 32 38 43 45 46 46 45 44 44 44 43 43 43 42 41 41 39 37 35 34 32 30 29 29 28 26 22 19 18 18 18 18 17 17 17 16 16 17 18 18 17 17 17 18 18 18 18 18 18 17 16 15 15 14 14 13 13 13 13 13 13 12 12 11 11 11
7 5 4 7 8 8 7 6 8 8 7 9 7 7 9 10 8 9 21 32 33 28 24 19 15 15 18 21 24 28 30 33 37 40 43 44 46 46 45 45 45 44 44 44 43 43 42 41 39 37 35 33 32 30 29 28 28 25 21 20 20 19 18 17 17 17 17 18 18 19 18 18 17 17 18 18 18 18 19 19 18 18 17 16 15 15 15 15 15 14 14 14 14 13 13 13 12
6 6 5 5 7 8 8 6 8 9 10 11 8 9 12 14 9 8 23 35 32 30 30 27 23 20 20 22 24 27 30 33 35 38 42 44 45 46 45 44 43 44 45 45 45 44 43 42 41 39 37 35 33 31 30 29 29 28 25 22 21 20 20 18 17 18 18 19 19 20 19 18 18 17 18 18 18 19 19 19 19 19 18 17 16 16 17 16 16 15 15 15 15 14 14 14 14
4 5 4 3 4 6 7 8 8 9 10 8 7 10 13 13 8 13 30 34 29 29 30 31 29 27 26 25 26 28 31 33 34 37 40 43 46 47 47 45 44 45 46 46 45 45 44 44 42 41 38 36 34 33 31 30 29 30 28 25 22 21 21 19 18 19 19 20 21 21 20 19 18 18 18 18 19 19 20 20 20 20 19 19 18 18 18 18 17 16 16 16 16 15 15 15 15
2 2 3 3 4 6 6 7 7 6 9 8 6 9 13 11 2 11 25 19 15 18 20 25 27 28 29 28 27 28 30 33 33 35 39 43 47 49 49 48 47 47 46 46 46 46 45 45 44 42 40 38 36 35 33 31 30 31 30 27 24 22 22 20 19 20 20 21 21 21 21 20 19 19 19 19 19 19 20 21 21 21 21 20 20 19 19 18 18 17 17 16 16 16 16 16 16
2 1 3 5 6 8 7 8 8 5 5 7 7 8 13 7 3 16 28 18 12 14 14 18 22 25 27 27 28 28 31 32 32 35 38 42 46 48 49 50 50 49 48 48 47 47 46 46 45 43 42 40 38 37 35 34 32 32 32 30 26 24 23 22 21 22 22 22 22 22 22 22 21 21 20 20 20 20 21 21 22 22 22 21 21 20 20 19 19 18 18 17 17 17 17 17 17
2 2 3 7 7 7 6 5 5 4 2 4 2 6 10 5 9 27 31 21 17 17 16 18 20 23 24 26 28 29 31 32 34 37 38 39 41 44 48 49 50 50 49 49 47 47 47 47 46 44 43 42 41 39 37 36 34 33 33 32 29 27 25 24 24 23 23 23 24 24 23 23 23 23 22 22 21 21 21 22 23 23 23 22 22 22 21 21 20 20 19 18 18 18 18 18 19
2 2 1 4 7 5 3 1 2 4 2 2 1 4 9 6 16 29 26 20 18 16 20 21 21 22 23 25 28 30 32 33 36 37 37 38 39 42 45 47 49 51 50 49 49 49 49 48 47 46 45 45 43 41 39 37 36 35 34 34 32 31 29 27 26 25 24 24 25 25 24 25 25 25 24 23 22 22 22 23 23 24 24 24 23 23 22 22 22 21 20 20 19 19 19 20 20
1 2 1 2 3 4 6 1 4 2 2 3 3 3 10 9 15 22 17 16 17 18 23 23 22 23 23 25 28 31 32 33 36 36 37 38 39 41 43 44 47 50 50 50 51 50 50 49 48 47 46 46 44 43 41 39 37 36 36 36 35 35 33 30 28 27 26 25 26 26 26 26 26 26 26 25 25 24 23 24 24 24 24 25 25 24 24 24 23 22 22 21 21 21 21 21 22
2 2 4 3 1 5 9 3 7 3 1 4 4 3 11 11 14 18 14 13 14 19 25 24 25 25 24 26 28 31 33 33 35 36 37 38 38 40 41 42 44 47 50 51 51 50 50 50 49 48 47 47 46 44 43 40 39 38 38 38 38 37 37 35 31 29 28 27 27 28 27 27 27 28 28 27 27 26 26 25 24 24 25 26 26 26 26 25 25 23 23 22 22 22 22 23 22
3 1 3 4 2 4 7 3 4 4 0 2 4 4 10 9 9 13 12 12 13 17 24 25 27 28 27 29 30 32 34 34 37 37 37 37 38 39 39 40 42 44 47 49 51 51 51 51 50 49 48 47 47 46 44 42 41 40 40 39 39 39 39 38 36 33 31 30 30 30 29 29 29 29 29 29 29 29 28 27 26 25 26 27 26 27 27 27 26 25 24 24 23 23 23 23 23
3 2 2 4 3 3 5 5 3 1 2 4 3 5 13 15 14 19 20 19 19 21 27 31 31 32 32 32 33 34 35 37 38 38 36 36 36 37 38 40 41 43 45 47 50 51 51 51 51 50 49 48 47 47 46 44 43 42 42 41 41 41 41 40 39 38 35 33 33 32 31 31 30 30 30 30 31 31 30 29 29 28 28 28 28 28 28 28 29 28 26 25 24 24 24 24 24
3 3 3 4 3 3 5 5 3 2 1 5 4 7 17 19 19 27 28 23 24 29 33 36 35 35 35 35 37 37 37 40 40 37 34 33 34 35 37 39 40 42 43 45 47 49 51 51 51 51 50 49 49 48 47 46 45 44 44 43 43 44 43 43 42 42 41 38 36 34 33 33 32 32 32 32 32 32 32 32 32 31 31 31 30 30 30 30 30 30 28 27 26 25 25 25 25
4 4 4 4 5 5 6 6 4 1 2 6 7 10 15 19 19 23 26 18 22 31 33 33 33 34 35 36 38 39 40 43 41 36 33 33 35 36 37 38 40 41 42 44 45 48 50 50 51 51 51 51 50 50 49 48 48 47 47 46 46 46 46 46 45 44 44 43 40 37 36 35 35 35 34 34 34 34 35 35 35 34 34 34 33 33 32 32 31 30 30 29 28 27 27 27 27
3 2 3 5 5 7 5 4 6 2 1 7 8 9 13 18 19 22 27 18 16 25 25 27 31 33 34 34 37 39 40 41 39 36 36 36 37 37 38 38 39 41 42 43 44 46 48 49 51 52 52 52 51 52 51 51 51 50 49 48 48 48 48 48 48 47 46 46 45 43 40 38 37 37 37 37 37 37 37 37 37 37 37 37 37 36 34 33 32 31 31 31 31 30 29 29 28
1 1 3 5 4 7 6 3 5 3 1 5 4 8 15 18 18 21 23 14 13 20 19 24 30 31 32 33 36 37 36 36 35 36 36 36 38 38 38 38 39 40 41 42 43 44 46 48 50 51 51 52 52 53 52 53 52 51 51 50 49 48 47 48 48 47 47 46 47 47 45 42 41 40 40 40 40 40 40 40 40 40 39 39 39 38 37 36 35 34 34 34 33 33 31 30 29
1 1 1 4 4 5 6 3 4 3 1 5 6 9 16 20 17 17 17 12 15 20 19 23 26 27 29 30 32 33 32 32 31 32 33 35 36 36 37 38 38 39 39 40 41 42 44 46 48 49 50 51 52 52 53 53 52 51 50 50 49 48 47 47 47 47 47 47 48 48 47 46 44 43 42 42 42 42 42 42 42 42 42 42 41 41 40 39 38 37 37 36 35 35 34 33 33
1 2 1 5 3 2 4 4 5 3 2 5 7 9 13 15 12 12 12 10 13 17 17 21 23 25 27 28 28 29 29 29 28 28 30 31 33 34 36 36 36 37 38 39 40 41 43 45 46 47 49 50 51 52 53 52 51 50 50 50 50 50 49 49 48 48 49 49 49 48 48 47 47 46 44 44 44 44 44 44 44 44 44 44 44 44 44 43 42 40 39 38 38 38 37 36 36
3 4 5 6 4 3 5 4 5 5 2 2 5 8 8 7 6 8 7 5 10 12 12 16 21 23 25 26 27 27 27 27 26 25 25 27 29 30 30 31 32 34 36 37 37 39 41 42 44 45 47 48 50 51 52 51 51 51 51 51 51 51 52 52 52 52 52 51 50 48 48 48 48 47 46 46 46 46 46 45 45 46 46 46 46 47 47 46 44 43 42 41 41 40 39 38 38
4 5 8 6 4 3 3 5 6 5 4 2 3 5 7 5 4 9 7 6 10 9 7 15 21 20 21 23 24 24 24 24 24 23 22 23 24 25 26 27 29 32 33 34 34 35 36 38 40 42 44 46 48 49 50 51 51 52 52 53 53 53 54 55 54 53 52 51 50 48 48 49 49 49 48 48 48 48 48 47 47 48 48 48 49 49 49 48 48 47 45 44 44 42 41 41 41
3 4 5 6 4 1 3 5 4 2 4 3 3 3 5 8 7 9 6 7 11 11 8 14 19 16 18 22 21 21 22 22 22 22 22 23 23 24 25 26 28 29 29 29 30 32 33 35 37 39 41 43 45 47 48 50 51 52 53 54 54 55 55 56 54 53 52 51 50 49 49 50 50 50 50 49 49 49 49 49 49 49 50 50 50 51 51 51 50 49 48 47 46 45 44 44 44
3 3 5 5 2 1 1 1 1 3 4 4 1 4 3 7 8 6 4 7 11 12 10 11 13 12 15 19 21 22 22 21 21 22 21 22 22 23 24 24 25 26 25 26 28 29 30 32 34 36 38 40 41 44 45 48 50 51 52 53 54 55 56 55 53 53 53 52 51 51 51 51 51 51 51 51 51 51 51 51 51 51 51 52 52 53 53 53 52 51 51 50 49 48 48 47 46
4 3 4 3 2 2 2 3 2 1 3 4 2 4 2 6 8 4 4 6 9 11 11 10 12 13 13 17 21 22 22 22 22 22 21 20 21 21 21 20 21 21 21 23 24 25 26 27 29 32 34 36 38 40 42 44 46 48 49 51 53 53 53 53 52 53 53 53 53 53 52 52 52 52 52 52 52 52 52 52 52 52 53 53 53 54 54 53 54 54 53 53 52 51 51 49 49
2 5 4 3 3 2 2 3 1 2 2 5 5 5 2 5 8 4 3 3 6 9 10 9 13 18 17 16 18 20 22 23 23 22 21 20 19 18 18 18 18 18 19 20 21 22 23 25 27 29 31 32 34 36 38 40 41 44 46 48 50 50 50 51 51 52 53 53 54 54 53 53 53 53 53 53 53 52 52 52 53 53 53 53 53 54 54 54 54 55 55 55 54 54 53 52 52
4 5 3 3 3 3 3 2 2 3 2 6 6 7 3 3 7 4 2 4 6 6 7 9 13 20 22 19 17 17 19 23 24 23 22 20 18 17 17 18 18 17 17 18 19 20 22 23 25 27 27 29 31 33 35 37 38 41 43 45 46 47 47 48 50 51 51 52 53 53 53 53 53 54 54 53 53 53 53 53 53 53 53 53 54 54 54 54 54 54 55 55 56 56 55 55 54
4 4 3 3 3 2 3 3 3 1 5 6 4 5 3 2 7 5 4 6 6 6 8 10 10 17 27 28 23 19 17 20 24 25 23 21 19 18 19 19 18 17 17 17 18 18 19 21 23 25 25 26 29 31 33 35 37 39 40 41 43 44 44 46 49 49 49 50 51 51 52 52 53 53 53 53 52 52 52 52 53 53 53 53 53 53 53 53 53 54 55 56 57 57 57 56 56
4 3 4 3 4 3 3 3 1 3 6 3 2 4 2 4 9 12 12 12 10 9 11 13 13 19 29 33 30 25 21 19 21 25 25 23 21 20 19 19 18 17 17 15 15 15 16 18 20 22 22 23 26 29 31 33 35 37 38 39 40 41 43 45 46 47 47 48 49 49 50 51 51 51 51 51 50 48 49 50 50 51 51 51 51 51 52 52 53 54 55 56 57 57 57 57 58
4 4 3 2 0 2 4 4 3 5 5 3 0 3 3 5 7 11 13 13 13 12 14 19 20 24 31 36 35 34 30 25 21 21 23 23 21 19 18 18 17 16 14 12 12 12 13 14 17 19 19 19 23 26 28 31 32 33 35 36 37 39 41 42 43 45 45 46 47 48 49 49 49 49 49 48 47 47 48 48 49 49 49 49 49 49 50 50 52 53 54 55 56 57 57 57 58
4 4 4 4 4 2 5 4 4 6 4 3 2 1 4 4 4 7 9 11 14 15 16 18 21 23 27 30 31 33 32 30 25 21 22 23 20 17 15 15 14 13 11 10 9 9 10 11 14 17 16 16 20 22 25 28 29 30 32 34 35 36 38 39 40 42 42 43 44 45 46 47 47 47 46 46 45 46 47 47 47 48 47 48 48 48 49 49 50 51 53 54 55 55 56 57 57
2 2 4 2 4 4 3 3 5 2 4 3 2 3 5 5 6 12 9 8 14 19 24 27 28 28 29 32 34 34 32 30 28 23 19 19 16 14 12 10 9 9 8 8 8 8 10 11 13 15 14 13 16 18 20 22 24 26 28 30 31 33 34 36 37 38 38 39 40 42 44 44 45 45 45 45 45 45 46 46 47 47 47 47 47 48 48 48 49 50 51 53 54 54 55 56 56
1 2 3 4 3 5 1 3 1 4 2 4 2 3 6 4 7 10 11 15 18 20 23 26 31 36 38 39 41 41 37 32 28 25 20 15 10 6 5 6 7 8 8 8 9 9 10 11 11 12 11 11 13 15 16 18 20 22 23 25 26 28 29 31 32 32 33 34 37 39 41 41 42 43 43 43 43 44 45 45 46 46 46 46 47 47 48 48 49 50 51 52 53 53 54 55 55
4 3 5 3 1 4 3 1 4 4 3 5 1 3 6 5 4 8 16 19 19 18 18 22 29 36 36 36 40 43 42 39 33 29 25 20 15 10 6 5 6 8 9 9 9 9 9 9 9 9 10 10 12 14 15 16 18 20 21 22 23 25 26 27 28 28 29 31 34 35 36 37 38 38 39 40 42 43 43 43 44 44 45 45 46 47 47 48 48 49 50 51 52 52 54 55 55
4 3 3 1 2 1 1 1 2 2 4 5 3 3 4 3 4 10 15 15 16 17 17 18 23 28 31 34 39 43 45 45 42 38 35 29 24 19 15 12 11 10 9 8 7 8 8 7 8 8 9 10 11 13 15 16 18 20 20 22 23 24 25 27 28 29 30 32 34 34 35 36 35 35 36 38 39 40 41 41 42 42 43 44 45 46 46 47 48 49 50 51 52 52 53 55 55
2 1 3 1 3 3 1 2 2 2 3 5 5 4 2 2 5 8 9 11 13 15 14 13 17 24 29 33 37 41 44 45 43 41 39 35 31 27 23 20 17 15 13 11 9 8 8 8 7 7 7 7 8 10 12 13 15 17 18 19 20 22 23 25 27 28 30 32 33 33 34 35 35 35 36 36 37 38 38 39 39 40 41 42 44 45 46 46 47 49 50 51 51 51 53 54 54
2 1 2 1 1 1 1 2 2 3 2 3 3 4 1 1 5 5 7 10 10 11 10 10 17 25 30 33 36 39 42 43 42 40 38 35 32 29 27 24 21 19 17 15 14 13 13 13 11 10 9 9 8 9 10 12 13 14 16 17 18 20 21 24 26 27 30 31 32 33 33 34 34 35 36 36 36 36 36 37 37 39 40 41 43 44 45 46 47 49 49 50 51 51 53 53 53
5 4 4 3 3 2 1 4 1 2 2 4 2 4 2 0 3 4 7 7 8 11 11 11 19 26 30 33 36 38 39 40 39 38 36 34 32 30 28 26 23 22 21 20 19 18 17 16 15 14 13 13 13 13 13 14 15 16 18 20 21 22 24 26 28 29 31 32 32 33 33 33 34 34 34 35 36 36 36 36 37 39 40 41 43 44 44 46 47 48 49 50 50 51 52 53 53
Wind_Direction
291 269 280 278 283 273 272 326 322 339 73 243 263 210 257 238 110 175 184 190 227 239 207 194 168 159 157 171 188 151 116 175 180 167 196 162 155 167 172 171 171 173 172 167 162 159 166 167 165 165 164 164 169 172 169 160 155 172 163 141 148 146 129 130 133 132 137 140 144 142 143 141 141 142 129 118 118 117 104 99 96 88 73 77 90 81 78 76 74 75 77 80 87 99 107 107 104
276 256 277 280 289 265 248 64 98 322 33 272 256 190 248 2 89 213 196 200 219 176 158 162 158 164 171 146 149 120 179 200 194 166 135 150 157 162 166 170 172 173 172 168 162 160 165 166 166 165 164 167 173 174 169 166 165 169 157 143 143 140 134 135 135 133 139 144 148 141 142 145 139 142 138 126 120 121 115 111 104 99 86 78 87 84 82 79 77 80 81 83 89 100 108 108 105
274 255 268 280 293 235 217 74 137 109 146 253 258 243 206 153 224 221 209 211 156 133 126 135 143 159 164 131 147 176 211 202 188 161 148 158 162 164 166 171 172 174 173 167 163 163 164 165 167 167 166 169 175 172 162 163 172 170 150 144 143 140 138 137 135 136 146 149 148 143 144 148 143 142 139 128 119 118 119 119 111 106 95 87 88 88 89 86 86 91 91 92 97 105 111 110 107
288 271 265 268 257 187 102 76 164 143 208 243 266 266 203 208 226 220 212 184 152 144 130 144 153 175 182 173 165 179 201 190 190 175 162 168 169 166 167 172 173 175 173 167 166 166 167 169 169 173 176 176 174 168 166 166 165 163 152 149 149 149 142 138 140 141 149 150 147 150 151 150 147 146 139 135 133 126 119 116 116 112 106 104 95 92 96 94 98 108 110 110 110 112 114 113 111
291 279 273 258 227 201 101 99 124 154 223 203 239 266 229 220 201 193 182 171 169 174 175 165 259 202 201 218 179 178 192 182 186 179 173 176 173 168 169 173 174 175 173 169 169 168 169 170 171 178 186 187 180 170 171 177 171 159 157 161 157 155 149 141 143 147 152 150 150 153 154 151 150 151 145 148 149 135 123 120 121 118 116 115 98 96 100 98 110 123 126 124 118 117 114 113 112
280 270 284 255 216 206 128 230 217 215 235 178 205 257 233 215 177 174 173 179 193 210 225 198 202 185 220 229 204 206 179 179 182 178 179 178 173 171 171 173 175 176 174 172 172 172 172 172 172 174 184 192 190 182 174 181 179 164 163 169 160 157 157 146 143 152 155 150 150 153 151 153 156 157 150 152 154 140 127 124 121 112 108 103 94 95 98 103 121 131 131 128 123 119 115 113 111
263 244 315 209 176 8 124 222 232 237 246 180 193 239 223 199 168 163 166 185 213 230 239 222 192 167 232 227 218 221 191 186 180 178 181 176 174 174 174 175 178 179 178 176 176 176 176 177 176 178 186 190 191 184 176 180 177 167 167 167 159 154 157 150 147 152 155 152 149 151 149 150 157 160 151 146 156 151 128 117 118 114 109 99 91 92 98 110 128 135 134 130 127 122 119 116 113
249 238 359 106 103 7 112 241 252 222 248 218 224 247 220 184 167 165 178 190 205 215 218 216 199 185 246 210 220 222 199 190 179 181 182 177 177 178 178 180 181 182 182 183 184 181 181 182 184 189 194 197 202 198 187 186 181 173 166 164 160 155 155 152 156 155 152 156 154 153 151 150 154 158 157 148 151 150 130 114 114 115 108 99 96 99 109 126 137 139 137 134 132 127 124 120 116
232 227 8 90 145 341 319 272 268 231 254 265 261 261 226 188 176 173 189 204 204 189 198 198 189 192 237 201 224 219 198 189 181 182 180 180 182 182 182 183 183 183 184 187 188 185 185 186 187 191 198 202 206 202 197 193 188 181 171 168 162 157 160 154 161 162 153 155 159 161 155 155 157 160 164 156 146 136 128 118 112 108 101 101 112 117 124 134 139 139 137 137 135 130 127 123 119
193 198 158 82 110 317 306 264 252 256 249 247 257 245 215 192 187 189 194 215 216 178 186 187 190 208 205 200 225 218 199 186 182 182 180 183 184 185 185 184 186 185 185 187 187 188 189 190 189 191 198 200 193 188 192 193 190 185 177 176 172 170 169 161 167 167 160 158 162 167 158 159 164 162 160 152 148 134 127 122 113 114 111 115 122 125 130 134 137 140 142 141 136 132 127 122 118
192 199 131 102 72 231 253 252 258 264 266 304 278 233 210 194 189 209 204 215 222 190 178 177 202 219 202 241 231 220 201 187 183 183 180 184 188 190 189 186 189 190 188 187 186 189 192 194 191 189 192 192 189 188 191 196 197 194 188 187 183 180 172 163 171 169 168 166 161 166 159 159 162 157 152 148 149 136 130 126 122 136 138 134 130 130 134 138 144 145 147 146 142 137 130 127 120
223 341 97 122 194 205 219 240 264 272 296 322 271 219 205 191 184 216 202 207 211 198 200 190 201 207 188 276 235 217 199 191 186 184 183 185 189 192 192 190 191 193 192 189 189 192 194 194 191 190 190 192 196 197 198 197 197 197 189 183 179 179 177 170 171 171 172 173 165 164 161 161 161 157 154 150 149 139 136 135 138 154 155 150 144 143 145 149 152 151 155 153 146 139 135 130 123
215 144 105 153 194 186 202 227 270 300 309 259 241 211 193 188 198 218 201 209 200 187 223 208 200 192 200 263 235 213 198 194 188 185 187 186 189 191 193 193 192 194 194 192 194 196 197 195 193 193 194 199 203 201 202 200 200 202 191 193 195 191 190 181 177 176 174 178 173 169 167 165 164 161 157 152 150 147 147 152 158 162 165 165 162 162 164 162 161 163 162 163 155 141 137 128 124
210 174 137 218 254 156 189 247 279 277 285 249 250 202 189 193 216 223 202 209 210 202 232 215 206 201 220 236 234 216 200 193 188 186 188 187 189 190 192 194 194 195 194 195 199 201 203 200 199 199 201 207 209 205 207 209 212 217 211 213 213 205 204 195 190 183 177 183 181 181 180 173 171 167 164 165 164 164 175 191 182 173 182 186 191 195 195 191 181 179 172 171 167 150 143 134 128
203 183 122 152 321 324 217 232 248 203 254 247 243 199 192 207 227 227 212 216 231 220 228 212 203 203 227 210 227 225 203 192 188 187 188 188 189 190 192 193 194 195 194 197 201 205 208 206 206 207 208 211 213 211 213 216 217 221 221 223 219 210 210 206 201 193 193 198 194 197 200 195 193 192 194 202 209 220 232 235 216 195 199 204 214 223 226 229 219 205 187 172 169 160 152 143 136
199 176 79 32 264 275 234 220 199 192 255 243 204 192 193 226 225 223 222 223 246 231 223 213 204 212 234 212 232 241 205 196 190 187 189 189 190 191 193 194 196 197 198 201 203 207 209 209 211 213 214 215 218 219 219 220 217 217 219 225 223 216 214 212 209 206 212 214 207 211 219 225 228 227 233 242 249 254 249 243 236 223 219 223 227 234 238 242 237 225 200 179 171 166 160 152 145
199 168 83 277 213 204 217 208 192 196 262 266 199 192 183 243 226 223 234 229 242 240 231 228 219 224 233 228 237 246 205 199 192 188 189 189 190 191 193 196 198 200 201 203 205 207 209 212 215 219 222 223 225 225 223 220 216 216 220 225 224 221 220 219 219 220 228 225 220 226 234 243 244 244 249 255 256 254 249 245 240 235 233 233 235 238 239 241 239 229 209 189 178 173 169 163 157
191 130 156 228 193 201 198 195 197 169 257 248 206 198 188 230 221 214 237 236 235 243 243 238 235 233 234 235 237 240 204 199 195 191 192 191 192 193 196 198 200 202 203 203 205 207 210 214 218 225 229 230 230 227 223 220 217 218 221 225 224 224 223 225 228 231 237 235 232 234 237 243 244 246 250 251 253 252 250 246 240 238 237 236 237 239 239 238 235 226 214 200 191 187 184 183 186
185 130 165 227 201 214 210 199 197 180 235 229 215 205 199 227 213 199 226 240 224 234 249 239 239 239 235 235 234 234 206 199 198 194 195 195 196 198 199 201 203 204 204 204 205 207 211 216 221 229 233 233 230 227 224 221 220 221 223 226 226 227 229 232 235 238 241 240 239 239 238 241 244 247 248 248 250 249 249 245 242 240 239 239 240 241 240 237 232 225 217 210 207 204 207 211 222
203 172 207 243 217 234 240 224 214 214 235 223 220 207 208 230 211 192 214 241 222 223 239 231 234 241 237 232 229 229 211 200 200 198 199 201 202 203 204 205 205 206 206 206 207 209 213 217 224 232 233 231 229 228 226 223 222 223 225 227 229 231 234 236 239 241 242 240 240 241 241 242 245 247 248 249 249 248 248 246 244 242 241 241 242 245 243 237 230 224 220 218 219 220 226 234 245
200 175 206 244 205 246 253 234 228 232 240 236 220 190 219 234 214 204 202 219 247 232 238 236 240 251 245 232 226 223 213 203 202 201 202 204 205 207 208 210 209 209 208 209 211 213 216 218 224 228 228 227 228 229 227 225 224 225 225 228 231 233 235 237 240 243 242 242 243 244 244 245 247 248 250 251 251 250 248 247 245 242 242 242 243 247 244 238 231 225 224 224 227 231 237 244 251
198 209 232 254 191 223 266 236 229 240 242 237 203 176 226 224 211 217 201 197 242 244 252 252 254 264 259 244 230 222 215 208 205 205 206 206 208 208 209 211 211 211 211 212 215 217 218 219 222 225 225 225 227 230 229 228 228 228 228 231 232 233 235 238 243 245 245 245 246 247 247 248 250 250 252 252 252 252 250 248 246 243 243 243 245 247 245 239 234 231 229 229 232 237 243 249 255
222 256 244 249 219 219 274 244 232 248 240 228 212 222 236 207 223 228 213 227 247 253 263 263 263 264 260 254 238 226 219 214 211 210 210 210 210 210 211 212 213 214 215 216 217 218 219 219 221 223 225 226 226 228 229 229 230 231 232 234 236 236 238 240 245 247 247 247 247 249 251 252 253 254 254 254 253 252 250 249 247 245 244 245 247 248 247 243 239 237 234 235 236 241 246 251 257
219 266 248 232 230 235 265 261 244 253 249 251 250 249 240 215 233 241 227 241 253 256 258 259 262 261 255 251 240 233 228 223 221 219 217 216 216 216 215 216 217 218 218 219 219 219 220 220 221 222 225 227 227 227 229 229 231 232 231 234 236 238 239 243 247 248 247 247 248 250 251 252 254 255 256 256 255 252 249 248 248 247 247 249 251 251 250 246 243 241 239 240 240 244 248 253 259
209 244 247 220 237 250 260 260 251 260 264 270 269 253 247 235 245 268 249 254 260 258 259 259 259 260 256 251 244 237 231 228 227 224 221 219 218 217 215 216 217 218 220 221 220 220 222 223 223 223 225 228 230 230 230 231 231 231 230 233 235 237 240 242 246 247 247 247 248 249 250 252 254 257 258 257 255 252 250 248 247 248 249 250 252 252 251 248 246 244 243 244 245 247 251 256 261
217 223 235 222 257 271 261 257 255 261 264 270 271 262 263 256 263 272 261 263 268 264 261 260 258 258 256 253 248 240 233 230 228 226 223 220 218 216 215 216 217 219 223 224 223 224 224 225 225 226 227 228 231 232 232 233 233 231 231 233 235 238 241 241 245 249 249 248 249 251 252 254 257 259 260 258 256 253 251 249 248 248 250 252 253 253 252 250 249 247 247 247 249 250 252 256 260
268 217 227 234 279 291 263 260 262 258 264 259 250 268 274 265 228 265 266 268 272 268 262 259 256 256 256 252 248 243 237 235 232 228 224 221 218 218 218 217 220 223 224 224 226 227 227 227 227 228 228 228 231 233 235 236 235 234 233 233 236 239 240 241 248 253 252 252 252 253 254 255 257 259 259 259 257 254 252 251 249 249 250 253 255 255 253 252 252 251 251 250 250 251 253 256 259
328 43 277 279 311 301 261 258 264 252 271 257 239 268 278 267 177 251 262 264 266 272 270 260 256 256 256 253 249 243 240 239 235 229 225 224 222 221 221 221 223 224 224 226 229 229 229 230 230 230 230 229 231 233 236 238 238 236 234 234 237 241 241 241 248 255 256 256 254 253 255 255 256 257 259 260 259 257 255 253 252 251 252 254 256 257 255 254 254 254 254 253 254 254 256 257 259
341 51 309 299 343 324 266 261 255 216 255 263 254 289 273 229 222 251 259 264 268 270 267 262 257 257 256 253 250 245 243 239 233 230 230 230 229 227 226 225 225 225 227 229 229 229 232 233 232 233 232 231 232 234 236 239 241 239 236 237 240 242 242 241 244 251 257 258 254 254 255 255 255 256 257 260 260 260 259 257 256 255 255 256 258 259 258 257 257 258 258 258 257 256 257 258 258
311 56 30 315 349 331 275 264 195 191 238 248 81 300 273 235 242 256 263 265 265 262 260 259 257 257 256 255 252 248 245 239 235 235 236 234 232 231 230 229 227 227 229 229 229 232 234 235 234 234 234 234 235 236 237 239 242 241 240 240 242 243 243 244 244 246 251 255 254 254 255 255 255 255 255 257 258 260 260 260 260 259 258 258 259 261 262 262 261 260 260 260 260 258 257 257 257
306 318 18 4 343 287 292 277 159 168 251 195 124 274 272 268 265 272 275 266 259 253 256 259 258 257 256 257 256 253 249 243 241 240 239 236 234 233 232 232 230 229 230 230 232 234 234 235 236 236 235 236 237 237 238 240 243 244 245 246 246 245 245 245 245 244 247 252 254 253 254 255 254 254 254 255 256 258 260 261 263 263 262 261 261 262 263 263 263 262 262 261 260 259 258 257 257
19 322 307 341 210 269 308 290 174 190 264 169 146 258 276 275 271 275 277 270 256 248 256 259 258 257 255 258 258 257 256 250 245 242 240 238 236 235 235 235 233 232 232 233 234 234 233 235 236 237 237 238 238 238 239 241 243 244 246 249 249 249 247 246 246 246 246 249 253 254 254 255 254 255 254 255 256 258 260 263 265 265 263 263 262 263 263 263 264 263 263 262 261 260 259 258 257
4 43 266 284 263 289 319 309 200 202 167 191 192 236 278 276 260 263 265 274 265 251 258 260 258 259 257 258 258 258 258 253 248 244 242 240 238 239 238 237 236 235 236 235 234 234 233 235 236 238 239 240 241 240 241 241 243 244 246 250 251 251 250 249 248 248 247 247 250 252 253 254 255 256 255 256 257 258 261 263 264 264 263 264 263 263 263 263 264 264 263 263 262 261 260 259 258
324 17 275 257 253 275 302 311 307 142 171 240 226 224 261 268 270 273 269 272 269 259 261 262 261 260 259 259 256 254 254 253 252 249 246 244 243 243 241 240 239 238 238 237 236 236 236 236 237 238 240 242 243 242 242 242 244 245 248 252 254 252 252 251 250 249 248 247 249 251 252 254 255 257 257 256 257 258 260 261 262 262 262 263 263 263 263 263 263 262 262 262 262 262 262 262 261
249 273 277 283 276 248 257 280 310 53 215 245 247 250 262 270 277 276 273 267 260 258 261 263 262 260 260 258 255 253 252 252 254 253 252 250 248 247 244 242 240 239 239 238 238 237 237 237 237 238 239 241 242 243 243 243 243 244 247 251 252 252 252 251 250 250 250 248 248 250 252 253 255 257 257 257 258 258 259 260 261 261 261 262 262 262 261 261 261 262 263 264 264 264 264 263 261
202 225 216 264 277 261 245 253 273 346 293 255 244 253 267 277 281 280 281 271 253 256 260 260 260 259 258 256 254 254 252 254 255 255 255 252 250 248 246 245 243 241 240 239 238 237 237 237 237 238 239 240 242 242 242 242 242 243 246 248 250 252 253 252 252 252 252 251 250 250 251 252 254 256 257 258 259 259 260 260 261 261 261 261 261 262 262 264 265 266 267 266 265 264 262 261 259
152 183 224 253 258 274 269 265 291 352 288 260 247 259 270 276 279 282 286 282 254 255 258 257 257 255 254 253 254 254 254 258 259 256 254 252 251 250 249 247 245 243 241 239 238 238 238 237 237 238 239 239 240 241 242 242 243 244 245 247 249 251 253 254 254 255 255 255 253 252 251 252 253 255 257 258 259 260 260 260 260 260 260 261 262 264 265 266 266 266 265 263 262 260 259 259 258
92 190 260 277 243 264 269 262 303 358 325 275 290 298 282 277 278 281 287 284 257 253 249 251 254 253 253 252 253 256 258 261 260 255 253 251 251 251 250 248 246 244 242 241 240 240 239 239 239 240 240 239 240 242 243 245 246 247 248 249 251 252 253 254 256 257 258 258 256 254 254 253 254 255 257 258 259 260 260 260 260 260 260 261 263 264 263 263 262 261 261 261 260 260 259 258 257
95 133 277 287 257 279 297 317 328 360 321 289 332 322 289 283 282 279 281 268 259 261 251 252 256 255 255 254 255 257 259 260 256 253 251 249 250 251 251 249 247 247 245 244 243 242 241 240 240 241 241 241 242 243 244 246 248 249 251 252 253 255 256 257 258 260 261 260 258 256 256 256 255 256 256 257 258 259 260 261 261 261 261 261 261 262 261 261 260 260 260 261 261 260 260 258 257
184 173 217 272 277 315 293 314 330 316 272 282 312 308 283 287 294 285 275 253 264 275 265 260 258 257 260 261 262 262 260 259 255 252 250 249 251 250 250 250 248 247 246 245 243 242 241 241 241 241 242 243 243 244 245 247 249 250 251 252 253 255 256 257 258 258 259 258 257 257 257 257 256 257 257 257 258 259 260 261 262 262 262 262 262 261 261 261 261 261 261 262 261 260 260 260 258
263 207 212 247 264 238 238 287 319 309 311 285 312 313 284 292 315 296 286 273 281 285 276 267 257 255 261 263 262 260 258 258 255 253 250 250 251 250 251 251 250 248 246 245 244 243 243 243 243 243 243 245 245 246 247 247 248 248 249 249 249 250 251 253 253 254 255 256 256 257 257 258 258 258 258 258 259 259 260 261 262 262 262 262 262 262 262 263 262 262 262 262 261 261 262 262 260
301 235 215 210 206 229 277 328 341 348 345 308 14 353 291 296 302 275 294 329 300 290 278 270 267 261 257 257 257 254 254 256 255 253 250 249 249 249 250 249 248 248 247 246 246 246 247 246 246 245 245 246 247 247 248 247 247 248 248 248 248 248 250 251 253 255 256 258 259 260 261 261 261 261 260 260 260 260 260 261 261 262 262 262 262 262 262 262 262 262 262 261 262 262 262 261 259
305 252 189 155 139 76 337 359 8 342 287 275 85 104 267 300 292 263 295 326 298 294 286 272 275 268 249 249 253 251 252 254 252 250 248 247 245 244 244 243 243 245 245 247 247 247 248 248 248 247 247 247 248 248 248 248 248 249 249 250 251 252 253 256 258 260 261 263 264 264 264 264 263 263 263 262 262 262 262 261 261 262 262 262 262 262 262 262 262 262 262 262 262 262 260 259 259
252 230 129 120 117 293 278 64 117 239 281 303 110 150 232 294 280 262 319 316 299 300 297 286 281 269 250 248 249 247 249 250 250 248 245 245 245 244 242 241 243 244 246 248 248 248 248 249 249 250 250 250 250 250 250 250 250 251 251 252 253 254 256 259 262 262 263 264 265 265 265 265 265 265 265 264 264 264 263 263 263 263 262 262 262 262 262 262 262 262 262 261 261 260 259 259 260
245 196 120 116 169 212 173 139 210 270 346 313 239 161 201 271 271 303 351 307 299 294 285 283 277 268 260 258 254 250 249 248 251 251 249 247 247 247 247 247 248 248 249 250 251 252 253 253 253 252 253 253 253 252 252 252 253 253 254 254 255 257 259 261 262 262 263 264 264 265 265 266 266 266 266 266 266 265 265 264 264 264 263 263 263 263 263 263 262 262 261 261 260 260 260 260 259
196 130 95 52 76 92 105 131 184 50 5 264 219 177 190 270 277 314 14 275 265 270 272 272 274 275 272 267 265 262 256 251 252 255 255 253 252 252 252 251 250 248 249 251 253 254 254 255 254 254 255 255 255 255 255 255 255 255 255 256 257 259 261 262 262 262 262 263 264 265 266 267 267 267 268 268 267 267 267 266 265 265 264 264 264 263 263 263 262 262 261 261 261 260 260 259 259
118 99 53 15 42 47 50 85 90 68 273 259 221 188 159 299 278 256 194 226 218 230 273 279 279 286 286 282 279 275 267 258 253 255 257 255 253 253 250 247 244 242 242 243 245 248 250 253 255 256 258 258 258 259 258 259 258 257 258 258 260 261 263 263 263 263 264 264 265 267 268 269 269 269 270 270 269 269 269 268 267 266 266 265 264 264 263 263 263 263 262 262 261 260 260 259 259
106 72 42 357 338 16 17 355 47 108 253 268 233 187 140 243 268 257 228 252 235 216 260 274 278 287 289 292 295 296 290 273 259 255 257 256 250 248 248 244 239 235 233 233 235 241 247 251 255 257 259 260 260 261 261 261 261 261 261 262 262 264 265 264 264 265 267 267 268 270 270 270 270 271 271 271 271 271 271 271 270 269 268 267 266 266 266 265 265 264 262 261 261 260 260 259 258
88 91 72 25 331 356 343 298 304 213 241 269 169 166 185 239 259 271 268 271 265 239 245 261 272 282 286 292 298 302 303 292 273 260 258 257 249 245 248 245 240 236 232 231 234 240 247 252 256 260 262 264 264 264 265 265 265 265 266 266 266 268 267 267 267 268 269 270 271 271 271 272 272 273 273 274 275 275 275 274 273 272 271 271 271 270 269 268 266 264 263 262 261 261 260 260 259
136 156 128 127 54 350 297 270 283 273 263 297 163 172 266 278 265 265 262 269 278 277 272 275 283 290 293 297 298 300 304 306 296 277 267 265 252 243 249 249 243 242 240 240 242 245 251 256 260 262 266 269 269 269 270 270 270 271 271 271 271 271 270 270 270 271 272 273 272 273 273 274 274 275 276 277 279 278 277 276 275 275 274 274 273 272 270 269 267 265 264 263 262 262 261 261 261
180 167 131 150 157 198 259 240 245 276 291 305 308 194 207 220 269 276 259 272 301 321 331 331 330 324 320 321 319 319 321 322 315 297 281 275 257 237 245 254 250 251 252 252 254 256 262 268 270 271 275 278 278 278 278 277 278 279 277 276 276 275 275 274 274 274 275 275 275 275 275 276 276 278 279 280 281 279 279 278 277 276 276 275 274 272 271 269 267 266 265 264 263 263 261 261 261
216 139 112 179 183 171 230 216 199 262 322 288 248 234 221 214 294 304 301 320 347 4 11 12 6 2 6 5 359 355 351 346 340 329 307 288 265 236 239 259 264 267 270 271 279 286 290 293 291 290 295 298 295 292 290 288 289 287 284 283 282 281 280 279 278 279 279 280 280 279 278 279 279 280 281 281 281 280 280 280 279 279 278 277 275 274 272 270 268 266 266 265 264 263 262 262 262
166 138 182 229 184 134 156 270 331 48 318 266 208 245 288 327 304 310 355 10 8 12 14 14 10 12 17 16 12 12 12 14 12 5 355 340 320 285 262 268 271 275 279 283 291 298 301 302 302 306 314 316 311 305 302 300 297 294 292 291 290 288 287 286 286 287 287 286 284 282 282 282 282 282 282 282 282 281 281 280 281 280 280 278 277 275 274 272 270 268 267 266 265 264 263 263 262
131 179 224 237 129 94 94 275 338 24 266 272 279 255 303 341 311 342 15 12 2 1 6 10 10 13 16 14 15 19 24 31 35 32 29 25 20 14 3 333 307 298 295 296 298 296 295 296 299 306 310 309 307 302 299 297 294 293 293 293 292 291 291 291 291 292 292 289 287 286 286 285 285 285 284 283 282 281 281 281 280 280 280 279 278 276 275 273 270 269 268 267 266 264 262 262 262
143 203 246 124 152 257 52 142 272 293 274 287 300 295 313 318 318 356 10 6 360 357 1 10 11 13 14 13 15 20 25 30 34 36 39 40 39 34 27 16 4 354 345 339 331 316 310 314 316 318 315 309 304 299 297 296 294 292 291 291 290 289 289 288 288 289 289 288 287 288 288 288 288 287 286 284 283 282 281 281 280 280 280 279 279 277 276 274 271 269 269 267 266 263 261 262 261
76 322 326 42 159 194 176 162 182 201 267 288 313 342 356 312 328 352 2 4 3 358 2 11 13 14 14 13 15 18 22 26 29 32 36 41 44 44 43 40 38 38 36 33 27 17 18 17 10 3 351 337 326 316 312 308 304 302 299 297 296 294 292 291 289 288 286 285 286 287 287 287 286 286 285 283 283 281 281 281 281 281 281 280 279 278 276 274 272 271 269 267 266 263 261 263 262
127 216 284 292 203 162 247 257 153 146 224 256 299 312 245 331 341 352 6 10 9 4 7 12 13 15 15 14 16 18 22 25 27 30 32 34 38 39 42 44 45 47 47 43 39 35 34 32 27 22 12 360 350 340 333 327 322 318 313 309 306 303 301 298 295 292 290 287 286 284 283 284 283 282 282 281 281 281 281 281 281 282 282 281 280 279 277 275 272 271 270 268 266 263 262 263 262
148 175 198 194 170 141 265 273 226 127 206 193 218 279 248 246 336 3 14 9 13 16 20 20 16 15 14 14 17 20 23 25 25 26 26 26 26 26 27 28 29 30 28 26 24 19 16 14 11 8 1 353 347 340 333 329 324 321 317 314 310 307 305 303 300 297 294 291 290 287 284 283 280 279 280 280 280 280 281 281 281 281 282 282 281 279 277 274 272 271 270 268 266 263 263 263 261